Presure
167 166 165 206 176 191 186 188 195 171 172 174 109 187 193 192 192 206 191 221 219 213 196 207 206 163 140 167 163 161 170 169 169 169 178 180 186 190
199 184 213 200 209 202 199 198 171 171 176 185 187 191 191 194 207 199 226 83 216 213 135 164 202 186 196 161 158 168 169 161 172 169 179 182 186 186
209 175 168 168 162 165 176 184 176 198 185 191 189 192 193 202 225 224 221 216 140 188 205 203 140 201 167 153 176 171 168 173 165 170 174 182 187 187
197 195 193 181 179 185 190 188 193 211 207 192 187 187 200 210 222 219 221 213 214 212 202 139 145 197 176 178 171 171 168 167 166 176 178 184 191 183
185 140 194 191 186 184 188 191 192 192 188 194 200 205 208 219 220 211 213 197 207 204 202 188 197 189 198 170 169 166 164 168 177 175 182 190 185 202
215 212 208 207 204 207 206 207 205 202 202 203 204 218 223 219 217 217 148 204 141 205 198 178 194 188 173 177 178 170 173 175 178 178 187 179 196 191
232 229 228 227 246 248 216 213 212 236 238 227 204 223 214 211 215 191 142 141 146 148 190 198 168 186 162 177 171 171 178 179 173 182 181 187 191 195
198 199 215 232 232 233 233 232 228 229 224 224 219 213 210 212 204 197 211 143 150 149 188 163 162 168 166 165 175 170 181 170 184 180 184 193 188 195
166 154 152 186 200 198 190 149 202 216 213 209 192 206 160 142 147 186 176 201 160 160 169 165 168 163 165 179 166 179 171 187 178 181 192 185 191 202
169 168 168 178 157 171 175 149 145 148 178 168 175 148 165 201 185 200 202 201 184 191 183 172 164 170 176 172 177 169 188 177 185 190 185 193 200 216
172 173 186 182 192 159 153 198 145 159 192 201 195 178 187 197 201 164 200 201 179 177 166 167 175 175 174 176 168 186 177 187 189 185 193 195 200 212
180 180 176 177 180 188 187 180 179 180 188 197 197 199 201 201 157 165 182 173 198 196 173 176 170 179 170 179 188 177 195 186 187 196 194 184 215 219
189 183 179 178 178 176 179 174 170 173 182 177 178 185 187 195 170 167 165 174 170 172 174 178 180 176 182 187 181 187 185 191 198 197 191 213 214 245
195 192 190 185 183 181 181 180 180 179 178 178 176 174 176 174 174 179 175 175 179 180 179 182 182 184 189 185 169 192 197 197 188 195 214 219 234 256
199 198 193 193 191 189 188 185 182 182 183 185 183 180 180 183 178 177 180 179 181 181 191 192 191 181 190 193 196 195 192 195 200 219 221 232 216 210
181 201 203 201 196 194 190 191 190 189 189 188 188 186 184 184 183 187 190 191 192 191 185 194 198 191 190 200 192 194 199 207 222 225 230 213 209 214
192 182 177 194 193 193 192 193 191 190 190 190 190 190 191 192 193 192 192 196 195 192 193 191 186 194 195 194 201 199 214 221 228 228 214 212 217 227
191 173 184 198 195 196 199 200 200 200 198 196 197 193 196 196 194 193 194 192 195 195 179 188 202 192 196 198 201 220 227 229 228 212 216 216 227 229
213 210 186 193 193 196 195 194 187 184 188 187 188 193 195 193 197 200 199 199 185 198 193 201 186 195 207 219 223 232 220 212 219 215 222 228 245 231
226 220 214 190 190 188 185 195 196 195 190 183 187 199 200 199 192 191 192 179 200 201 206 204 212 217 222 233 232 217 212 219 214 230 229 245 237 236
223 218 222 221 220 217 205 183 186 187 198 197 196 194 201 208 201 205 209 201 211 216 213 219 224 236 237 222 221 221 220 224 230 240 237 242 251 244
213 217 236 229 225 224 221 222 220 218 219 220 218 218 209 215 217 219 217 215 219 224 233 236 239 219 224 225 227 229 252 230 252 239 238 249 247 248
221 220 216 212 211 213 222 230 230 230 230 229 228 227 226 226 225 229 230 236 242 238 241 217 228 229 231 228 241 246 249 235 252 237 254 246 245 256
Wind_Speed
78 77 76 89 78 85 82 80 81 72 72 74 58 74 76 75 74 76 61 63 61 59 61 61 62 62 65 61 67 68 66 68 70 72 73 75 77 79
98 88 93 89 87 84 82 81 74 75 77 79 78 78 76 78 77 75 66 50 62 61 66 65 62 64 63 67 70 68 69 72 72 75 76 79 80 81
100 84 82 81 76 75 78 79 78 80 81 80 78 79 78 78 70 69 67 64 63 63 63 65 69 65 65 73 68 70 71 73 76 77 78 81 84 85
95 91 89 86 85 83 83 82 80 83 82 81 77 76 79 79 72 69 66 68 65 64 64 72 72 66 65 66 71 72 74 76 79 79 82 84 88 86
92 87 91 86 85 85 84 82 81 80 80 80 82 79 76 73 73 69 65 67 66 68 69 68 68 70 68 71 74 76 77 79 80 82 86 89 89 96
98 97 93 91 89 89 87 86 84 82 81 81 82 78 73 73 72 70 71 67 75 68 70 70 69 70 73 75 76 79 80 81 84 85 90 90 96 94
91 92 92 90 80 78 89 88 85 80 78 78 75 74 74 73 74 72 73 76 79 76 69 72 75 73 80 77 80 82 82 85 86 90 92 96 97 100
90 89 87 82 82 82 81 80 80 78 76 74 73 73 75 73 74 75 72 77 77 80 72 79 80 80 81 83 82 83 86 86 93 93 96 99 98 104
94 93 92 88 86 85 82 82 78 78 77 76 76 75 78 78 81 77 78 76 78 80 77 81 82 84 84 84 85 86 88 93 94 96 100 99 104 110
98 97 95 91 90 88 86 86 87 87 83 82 81 83 81 77 80 78 79 78 78 79 76 82 86 86 85 87 88 90 95 95 99 100 100 105 111 111
102 101 95 94 92 91 89 86 90 88 84 83 81 81 81 81 81 83 82 81 79 80 87 87 88 87 89 90 91 95 97 100 102 101 106 109 112 112
103 102 101 98 97 92 89 88 86 87 85 85 84 84 84 85 87 85 81 83 84 85 89 88 89 91 91 95 97 97 102 101 103 109 109 105 115 112
105 104 103 102 100 97 93 94 93 92 90 89 87 88 87 87 88 87 89 87 91 92 92 91 93 95 95 99 100 102 102 107 111 112 110 118 115 110
109 106 105 104 103 100 97 97 95 94 93 93 93 93 92 91 90 89 92 94 94 95 95 95 98 97 99 101 96 106 109 109 107 114 117 116 112 103
110 109 107 105 103 102 101 100 98 97 97 97 95 95 94 93 95 96 96 97 98 97 98 99 100 99 103 105 108 109 108 113 118 116 115 112 112 114
104 110 109 108 106 104 102 101 100 100 100 100 99 99 99 100 100 100 100 102 101 100 101 103 103 104 104 110 109 112 116 119 118 115 113 114 114 114
113 110 108 109 108 107 106 106 106 105 103 103 103 103 103 103 102 103 104 104 105 105 104 103 104 107 108 111 116 115 123 119 117 115 114 115 115 113
115 109 111 114 112 110 110 111 110 109 108 107 107 106 107 106 106 107 107 106 108 108 103 108 115 108 112 114 117 122 119 117 115 115 115 116 114 112
123 122 113 116 115 114 113 111 106 103 105 103 104 108 110 109 110 111 112 112 104 114 112 116 107 111 122 124 122 120 117 115 114 115 116 113 112 113
123 125 125 117 116 113 111 114 113 111 110 104 107 114 116 115 109 109 112 107 117 119 121 122 125 127 124 121 119 117 115 115 115 115 113 111 110 113
123 124 126 127 129 128 121 110 111 111 116 115 115 116 119 124 120 121 124 120 125 127 125 127 126 124 120 117 117 117 117 116 115 114 111 111 113 112
122 122 127 128 128 129 128 127 127 126 126 127 126 127 124 128 129 129 129 127 127 127 127 126 122 118 118 118 118 118 118 113 116 112 108 115 116 116
125 125 124 122 121 123 126 129 130 129 129 130 129 129 129 130 130 129 130 129 127 125 123 118 121 119 120 120 120 119 116 114 115 109 120 116 118 118
Wind_Direction
258 259 261 264 265 267 271 273 273 276 278 279 277 285 287 289 290 291 287 287 285 288 289 290 291 296 299 297 298 300 303 305 307 309 313 314 318 318
259 260 260 263 264 264 265 267 272 276 277 279 281 282 285 286 287 289 284 288 284 285 292 292 291 294 296 296 299 301 302 305 308 309 313 314 317 315
257 258 260 262 263 265 267 268 271 270 274 275 278 280 282 283 282 282 282 283 287 285 287 288 295 292 295 298 299 301 302 305 305 308 310 313 316 313
258 259 260 261 263 265 265 267 268 268 270 274 275 277 280 282 281 280 282 282 282 283 286 293 294 291 294 296 297 299 302 304 305 309 311 312 314 311
256 260 259 260 261 262 264 266 267 269 270 273 274 276 277 277 278 279 278 281 283 285 286 289 291 292 295 295 297 299 302 302 307 308 310 312 311 316
251 252 255 256 259 260 262 263 264 266 269 271 273 274 274 274 275 277 282 280 286 280 284 291 291 293 294 297 298 301 303 304 306 308 310 308 313 312
248 250 252 254 255 256 259 261 263 264 265 266 268 269 272 274 276 278 280 284 285 289 287 287 292 292 295 296 298 300 303 305 305 307 307 309 311 313
251 253 253 252 254 256 256 258 260 261 263 264 266 269 271 272 275 280 278 283 285 287 287 290 290 291 294 297 298 300 303 303 305 305 307 310 310 314
249 249 251 254 256 257 258 261 260 261 263 266 268 268 274 278 278 278 280 279 285 286 287 287 288 292 295 296 299 301 301 303 303 305 308 308 311 313
249 251 252 253 254 256 258 260 262 264 266 268 269 273 274 273 276 276 278 279 283 285 289 287 290 292 294 297 299 299 301 302 304 306 307 309 311 312
248 250 251 253 254 256 258 259 263 265 266 266 268 272 273 273 274 279 277 280 284 286 285 288 289 292 295 296 297 299 299 302 303 305 307 309 309 312
248 250 252 253 255 256 258 260 262 264 266 267 268 270 271 272 278 279 280 282 283 285 284 287 291 292 294 295 297 297 301 301 303 306 307 306 309 311
246 249 251 253 255 258 259 261 263 265 265 268 270 271 272 272 276 278 279 280 281 283 286 288 289 291 294 294 296 298 300 302 305 305 306 307 308 312
246 248 249 252 255 257 259 260 262 264 266 267 269 271 272 274 277 278 278 279 281 283 286 288 288 292 293 294 295 299 301 302 302 305 305 306 309 308
247 248 250 252 254 256 258 260 262 264 265 267 268 270 272 274 274 275 278 280 282 284 285 286 289 291 292 295 297 299 300 302 303 303 304 306 305 306
248 250 250 252 254 256 259 260 262 263 264 266 268 269 270 271 274 276 278 279 281 284 285 288 291 291 294 296 297 299 300 301 302 303 303 304 304 306
246 248 249 254 254 256 257 258 259 261 263 265 267 269 271 273 275 277 279 282 284 285 287 289 289 292 294 295 297 299 299 299 302 302 303 304 305 305
247 247 250 253 254 255 256 258 260 262 263 266 267 271 273 274 276 278 280 282 284 286 285 287 289 292 294 295 297 296 299 300 301 301 303 303 303 305
248 250 250 254 255 257 258 260 261 263 266 268 270 272 274 276 278 279 280 282 283 286 287 288 290 293 294 294 295 297 296 298 300 300 301 301 305 304
246 249 251 252 254 256 258 262 264 265 267 268 271 272 273 275 277 279 280 280 283 284 288 289 290 290 291 293 294 294 296 298 299 300 300 304 304 305
247 249 250 252 254 256 258 261 263 265 267 269 271 273 274 274 276 278 279 281 282 283 285 286 287 289 291 291 293 295 296 297 297 300 300 304 307 306
249 249 250 252 255 257 260 261 262 263 264 265 268 269 272 273 274 275 278 280 281 283 284 286 289 289 290 292 293 294 297 296 301 301 301 308 307 308
250 252 254 256 257 259 261 261 263 264 266 267 268 270 271 272 274 276 277 279 281 283 286 286 288 290 290 292 294 295 298 297 303 300 307 303 306 306